TimePDT,TemperatureF,Dew PointF,Humidity,Sea Level PressureIn,VisibilityMPH,Wind Direction,Wind SpeedMPH,Gust SpeedMPH,PrecipitationIn,Events,Conditions,WindDirDegrees,DateUTC
12:53 AM,27.0,5.0,39,30.53,10.0,SE,4.6,-,N/A,,Clear,140,2013-05-02 07:53:00
1:53 AM,30.0,7.0,38,30.51,10.0,NNE,10.4,-,N/A,,Clear,20,2013-05-02 08:53:00
2:53 AM,30.9,8.1,38,30.51,10.0,North,11.5,-,N/A,,Clear,10,2013-05-02 09:53:00
3:53 AM,28.9,8.1,41,30.52,10.0,NNE,9.2,-,N/A,,Clear,20,2013-05-02 10:53:00
4:53 AM,23.0,6.1,48,30.54,10.0,SSE,5.8,-,N/A,,Clear,150,2013-05-02 11:53:00
5:53 AM,18.0,5.0,57,30.58,10.0,South,11.5,-,N/A,,Clear,170,2013-05-02 12:53:00
6:53 AM,25.0,7.0,46,30.59,10.0,South,9.2,-,N/A,,Clear,170,2013-05-02 13:53:00
7:53 AM,35.1,8.1,33,30.56,10.0,South,5.8,-,N/A,,Clear,170,2013-05-02 14:53:00
8:53 AM,41.0,6.1,24,30.56,10.0,Variable,3.5,-,N/A,,Clear,0,2013-05-02 15:53:00
9:53 AM,44.1,3.9,19,30.54,10.0,Calm,Calm,-,N/A,,Clear,0,2013-05-02 16:53:00
10:53 AM,46.0,1.9,16,30.52,10.0,Calm,Calm,-,N/A,,Clear,0,2013-05-02 17:53:00
11:53 AM,53.1,3.0,13,30.48,10.0,Variable,4.6,-,N/A,,Clear,0,2013-05-02 18:53:00
12:53 PM,55.9,5.0,13,30.46,10.0,Variable,5.8,-,N/A,,Clear,0,2013-05-02 19:53:00
1:53 PM,57.9,5.0,12,30.42,10.0,ENE,5.8,-,N/A,,Clear,60,2013-05-02 20:53:00
2:53 PM,60.1,5.0,11,30.37,10.0,NE,5.8,-,N/A,,Clear,50,2013-05-02 21:53:00
3:53 PM,60.1,3.9,11,30.35,10.0,Variable,3.5,-,N/A,,Clear,0,2013-05-02 22:53:00
4:53 PM,62.1,3.0,9,30.34,10.0,NE,8.1,-,N/A,,Clear,40,2013-05-02 23:53:00
5:53 PM,60.1,1.9,10,30.37,10.0,North,9.2,-,N/A,,Clear,360,2013-05-03 00:53:00
6:53 PM,59.0,-0.0,9,30.33,10.0,North,8.1,-,N/A,,Clear,10,2013-05-03 01:53:00
7:53 PM,53.1,-0.9,11,30.30,10.0,Calm,Calm,-,N/A,,Clear,0,2013-05-03 02:53:00
8:53 PM,42.1,1.9,19,30.34,10.0,SSE,10.4,-,N/A,,Clear,150,2013-05-03 03:53:00
9:53 PM,39.9,5.0,23,30.33,10.0,South,11.5,-,N/A,,Clear,170,2013-05-03 04:53:00
10:53 PM,35.1,7.0,31,30.34,10.0,South,6.9,-,N/A,,Clear,170,2013-05-03 05:53:00
11:53 PM,30.9,7.0,37,30.32,10.0,SSE,10.4,-,N/A,,Clear,150,2013-05-03 06:53:00